Denver Centennial, CO

5:32 AM MDT on March 30, 2017 (GMT -0600)
Centennial

Weather History for KAPA - April, 2014

Change the Weather History Date:

Sunday, April 6, 2014

  Actual Average Record
Temperature  
Mean Temperature 42 °F -  
Max Temperature 52 °F 54 °F 74 °F (2015)
Min Temperature 31 °F 29 °F 15 °F (1997)
Degree Days  
Heating Degree Days 23    
Month to date heating degree days 154  
Moisture  
Dew Point 28 °F    
Average Humidity 57    
Maximum Humidity 82    
Minimum Humidity 32    
Precipitation  
Precipitation 0.01 in - - ()
Month to date precipitation 0.53  
Year to date precipitation 2.12  
Sea Level Pressure  
Sea Level Pressure 29.90 in    
Wind  
Wind Speed 6 mph (SSW)    
Max Wind Speed 23 mph    
Max Gust Speed 29 mph    
Visibility 10 miles    
Events Rain    
Averages and records for this station are not official NWS values.
T = Trace of Precipitation, MM = Missing Value Source: NWS Daily Summary

Daily Weather History Graph

Daily Weather History Graph

Search for Another Location

Airport or City:

Trip Planner

Search our weather history database for the weather conditions in past years. The results will help you decide how hot, cold, wet, or windy it might be!

Date:

Astronomy

Apr. 06, 2014 Rise Set
Actual Time 6:35 AM MDT 7:28 PM MDT
Civil Twilight 6:08 AM MDT 7:55 PM MDT
Nautical Twilight 5:35 AM MDT 8:28 PM MDT
Astronomical Twilight 5:02 AM MDT 9:02 PM MDT
Moon 11:39 AM MDT (4/6) 1:25 AM MDT (4/6)
Length of Visible Light 13h 47m
Length of Day
12h 52m
Waxing Crescent, 44% of the Moon is Illuminated
Apr 6
Waxing Crescent
Apr 7
First Quarter
Apr 15
Full
Apr 22
Last Quarter
Apr 29
New

Hourly Weather History & Observations

Time (MDT) Temp. Windchill Dew Point Humidity Pressure Visibility Wind Dir Wind Speed Gust Speed Precip Events Conditions
12:53 AM 39.0 °F 36.8 °F 28.9 °F 67% 29.88 in 10.0 mi WNW 3.5 mph - N/A   Scattered Clouds
1:53 AM 35.1 °F 29.3 °F 28.9 °F 78% 29.88 in 10.0 mi SW 6.9 mph - N/A   Mostly Cloudy
2:53 AM 34.0 °F 31.0 °F 28.9 °F 82% 29.88 in 10.0 mi South 3.5 mph - N/A   Mostly Cloudy
3:53 AM 32.0 °F 28.7 °F 27.0 °F 82% 29.88 in 10.0 mi SSW 3.5 mph - N/A   Scattered Clouds
4:53 AM 35.1 °F 30.1 °F 28.9 °F 78% 29.87 in 10.0 mi WSW 5.8 mph - N/A   Scattered Clouds
5:53 AM 34.0 °F 31.0 °F 28.0 °F 79% 29.89 in 10.0 mi South 3.5 mph - N/A   Scattered Clouds
6:53 AM 34.0 °F 27.2 °F 26.1 °F 73% 29.91 in 10.0 mi WSW 8.1 mph - N/A   Scattered Clouds
7:53 AM 37.0 °F 31.0 °F 27.0 °F 67% 29.91 in 10.0 mi WSW 8.1 mph - N/A   Scattered Clouds
8:53 AM 43.0 °F 40.3 °F 24.1 °F 47% 29.88 in 10.0 mi NW 4.6 mph - N/A   Scattered Clouds
9:53 AM 46.0 °F 43.1 °F 23.0 °F 40% 29.88 in 10.0 mi NW 5.8 mph - N/A   Scattered Clouds
10:53 AM 48.0 °F - 23.0 °F 37% 29.88 in 10.0 mi NW 4.6 mph - N/A   Partly Cloudy
11:53 AM 50.0 °F - 21.9 °F 33% 29.86 in 10.0 mi NNW 3.5 mph - N/A   Scattered Clouds
12:53 PM 51.1 °F - 26.1 °F 38% 29.84 in 10.0 mi East 8.1 mph - N/A   Mostly Cloudy
1:35 PM 39.9 °F 31.4 °F 30.9 °F 70% 29.90 in 8.0 mi NW 16.1 mph - 0.01 in Rain Light Rain
1:53 PM 41.0 °F 36.4 °F 30.0 °F 65% 29.93 in 8.0 mi ENE 6.9 mph 17.3 mph 0.01 in Rain Light Rain
2:07 PM 39.9 °F 35.1 °F 30.9 °F 70% 29.91 in 10.0 mi East 6.9 mph - 0.00 in   Overcast
2:53 PM 43.0 °F 37.2 °F 33.1 °F 68% 29.90 in 10.0 mi SSE 10.4 mph - 0.00 in   Mostly Cloudy
3:53 PM 46.0 °F 41.0 °F 30.9 °F 56% 29.88 in 10.0 mi South 10.4 mph - N/A   Mostly Cloudy
4:53 PM 46.0 °F 43.1 °F 24.1 °F 42% 29.86 in 10.0 mi SSW 5.8 mph - N/A   Mostly Cloudy
5:53 PM 48.0 °F - 25.0 °F 41% 29.88 in 10.0 mi Variable 3.5 mph - N/A   Mostly Cloudy
6:53 PM 42.1 °F 38.4 °F 30.0 °F 62% 29.93 in 10.0 mi SE 5.8 mph - N/A   Mostly Cloudy
7:53 PM 39.0 °F 34.0 °F 30.0 °F 70% 29.93 in 10.0 mi SSE 6.9 mph - N/A   Mostly Cloudy
8:53 PM 39.0 °F - 30.0 °F 70% 29.95 in 10.0 mi Calm Calm - N/A   Mostly Cloudy
9:53 PM 36.0 °F 29.6 °F 30.0 °F 79% 29.96 in 10.0 mi South 8.1 mph - N/A   Mostly Cloudy
10:53 PM 34.0 °F 29.8 °F 28.9 °F 82% 29.96 in 10.0 mi South 4.6 mph - N/A   Mostly Cloudy
11:53 PM 36.0 °F - 30.0 °F 79% 29.97 in 10.0 mi Calm Calm - N/A   Overcast